Regional Weather Roundup
Issued by NWS

Home | Current Version | Previous Version | Text Only | Print | Product List | Glossary Off
Versions: 1 2 3 4 5 6 7 8 9 10 11 12 13 14 15 16 17 18 19 20 21 22 23 24 25 26 27 28 29 30 31 32 33 34 35 36 37 38 39 40 41 42 43 44 45 46 47 48 49 50

000
ASUS43 KFSD 010710
RWRSD

WEATHER ROUNDUP FOR SOUTH DAKOTA
NATIONAL WEATHER SERVICE SIOUX FALLS SD
200 AM CDT MON SEP 01 2014

NOTE: "FAIR" INDICATES FEW OR NO CLOUDS BELOW 12,000 FEET WITH NO
SIGNIFICANT WEATHER AND/OR OBSTRUCTIONS TO VISIBILITY.


SDZ001>005-009-010-012>017-010800-
NORTHWEST AND NORTH CENTRAL SOUTH DAKOTA

CITY           SKY/WX    TMP DP  RH WIND       PRES   REMARKS
BUFFALO          N/A     49  47  93 W8        29.80R
FAITH            N/A     53  48  83 N9        29.85R
MOBRIDGE       MOCLDY    60  55  83 N8        29.75F
$$

SDZ012>016-024>037-041>051-057-063-072>074-010800-
SOUTHWEST AND SOUTH CENTRAL SOUTH DAKOTA

CITY           SKY/WX    TMP DP  RH WIND       PRES   REMARKS
RAPID CTY ARPT CLEAR     51  48  89 W7        29.89R
PIERRE         MOCLDY    59  56  89 NW10      29.77R
CUSTER         CLEAR     48  40  73 NW5       29.99R
ELLSWORTH AFB  PTCLDY    50  47  89 W6        29.88R
PHILIP         CLEAR     55  51  86 W7        29.83R
PINE RIDGE     CLEAR     48  47  96 SW6       29.91S
WINNER         FAIR      59  57  93 W9        29.79S
$$

SDZ004>011-016>023-039-040-010800-
NORTHEAST SOUTH DAKOTA

CITY           SKY/WX    TMP DP  RH WIND       PRES   REMARKS
ABERDEEN       LGT RAIN  61  60  97 NW6       29.72R
WATERTOWN      CLOUDY    62  61  96 W7        29.70F
SISSETON         N/A     62  61  96 NW6       29.66F
$$

SDZ017-020-022-023-036>040-048>070-010800-
SOUTHEAST SOUTH DAKOTA

CITY           SKY/WX    TMP DP  RH WIND       PRES   REMARKS
SIOUX FALLS    CLOUDY    63  61  93 NW5       29.70S
HURON          CLOUDY    61  60  97 S3        29.72R
CHAMBERLAIN    CLOUDY    61  59  93 W7        29.76F
MITCHELL       CLOUDY    65  62  90 NW9       29.71F
YANKTON        MOCLDY    63  61  94 NW9       29.72R
$$

ABBREVIATIONS USED IN REMARKS
   TC - TEMPERATURE IN CELSIUS
  WCI - WIND CHILL INDEX
   HX - HEAT INDEX
  VSB - VISIBILITY




USA.gov is the U.S. government's official web portal to all federal, state and local government web resources and services.